This is the latest recevied weather packets stored in our database for station/object KB4MLW-13. If no packets are shown the sender has not sent any weather packets the latest 10 day(s).
| Time | Temp. | Humidity | Pressure | Rain* | Wind** | Luminosity | Snow |
|---|---|---|---|---|---|---|---|
| 1788196048 | 32.78° C | 62% | 1003.3 hPa | 0 mm | - | - | - |
| 1788195988 | 32.22° C | 67% | 1003.3 hPa | 0 mm | - | - | - |
| 1788195928 | 32.22° C | 67% | 1003.1 hPa | 0 mm | - | - | - |
| 1788195839 | 32.22° C | 65% | 1003.3 hPa | 0 mm | - | - | - |
| 1788195778 | 32.22° C | 66% | 1003.3 hPa | 0 mm | - | - | - |
| 1788195718 | 32.22° C | 67% | 1003.4 hPa | 0 mm | - | - | - |
| 1788195629 | 32.22° C | 68% | 1003.3 hPa | 0 mm | - | - | - |
| 1788195568 | 32.22° C | 67% | 1003.4 hPa | 0 mm | - | - | - |
| 1788195508 | 32.22° C | 66% | 1003.2 hPa | 0 mm | - | - | - |
| 1788195448 | 32.22° C | 66% | 1003.6 hPa | 0 mm | - | - | - |
| 1788195358 | 32.22° C | 65% | 1003.3 hPa | 0 mm | - | - | - |
| 1788195268 | 32.22° C | 66% | 1003.5 hPa | 0 mm | - | - | - |
| 1788195208 | 32.22° C | 65% | 1003.5 hPa | 0 mm | - | - | - |
| 1788195119 | 32.78° C | 63% | 1003.4 hPa | 0 mm | - | - | - |
| 1788195058 | 32.78° C | 68% | 1003.5 hPa | 0 mm | - | - | - |
| 1788194998 | 32.78° C | 64% | 1003.3 hPa | 0 mm | - | - | - |
| 1788194938 | 32.78° C | 64% | 1003.6 hPa | 0 mm | - | - | - |
| 1788194849 | 32.22° C | 65% | 1003.8 hPa | 0 mm | - | - | - |
| 1788194788 | 32.22° C | 65% | 1003.6 hPa | 0 mm | - | - | - |
| 1788194728 | 32.22° C | 64% | 1003.6 hPa | 0 mm | - | - | - |
| 1788194668 | 32.22° C | 67% | 1003.5 hPa | 0 mm | - | - | - |
| 1788194579 | 32.22° C | 65% | 1003.6 hPa | 0 mm | - | - | - |
| 1788194518 | 32.22° C | 63% | 1003.7 hPa | 0 mm | - | - | - |
| 1788194458 | 32.22° C | 66% | 1003.7 hPa | 0 mm | - | - | - |
| 1788194398 | 32.22° C | 64% | 1003.7 hPa | 0 mm | - | - | - |
* Rain latest hour (hover to see other rain measurements)
** Current wind speed in m/s (hover to see current wind gust speed)